Weather History for Stuart, FL

Change the Weather History Date:

Monday, January 6, 2014

  Actual Average Record
Temperature  
Mean Temperature 66 °F -  
Max Temperature 82 °F 76 °F 85 °F (1952)
Min Temperature 51 °F 56 °F 37 °F (1956)
Cooling Degree Days 2    
Growing Degree Days 16 (Base 50)    
Moisture  
Dew Point 52 °F    
Average Humidity 62    
Maximum Humidity 88    
Minimum Humidity 19    
Precipitation  
Precipitation 0.00 in - - ()
Sea Level Pressure  
Sea Level Pressure 30.09 in    
Wind  
Wind Speed 7 mph (West)    
Max Wind Speed 17 mph    
Max Gust Speed 29 mph    
Visibility 7 miles    
Events Fog    
Averages and records for this station are not official NWS values.
T = Trace of Precipitation, MM = Missing Value Source: NWS Daily Summary

Daily Weather History Graph

Daily Weather History Graph

Search for Another Location

Airport:

Trip Planner

Search our weather history database for the weather conditions in past years. The results will help you decide how hot, cold, wet, or windy it might be!

Date:

Astronomy

Jan. 06, 2014 Rise Set
Actual Time 7:11 AM EST 5:42 PM EST
Civil Twilight 6:46 AM EST 6:07 PM EST
Nautical Twilight 6:17 AM EST 6:36 PM EST
Astronomical Twilight 5:49 AM EST 7:04 PM EST
Moon 11:00 AM EST (1/6) 11:36 PM EST (1/6)
Length of Visible Light 11h 21m
Length of Day
10h 30m
Waxing Crescent, 34% of the Moon is Illuminated
Jan 6
Waxing Crescent
Jan 7
First Quarter
Jan 15
Full
Jan 24
Last Quarter
Jan 30
New

Hourly Weather History & Observations

Time (EST) Temp. Heat Index Dew Point Humidity Pressure Visibility Wind Dir Wind Speed Gust Speed Precip Events Conditions
4:15 AM 68.0 °F - 64.4 °F 88% 30.00 in 10.0 mi Calm Calm - N/A   Clear
4:35 AM 68.0 °F - 62.6 °F 83% 30.00 in 10.0 mi WSW 4.6 mph - N/A   Scattered Clouds
4:55 AM 68.0 °F - 62.6 °F 83% 30.00 in 10.0 mi WSW 4.6 mph - N/A   Mostly Cloudy
5:15 AM 68.0 °F - 62.6 °F 83% 30.00 in 10.0 mi SW 3.5 mph - N/A   Mostly Cloudy
5:35 AM 68.0 °F - 62.6 °F 83% 30.00 in 7.0 mi WSW 4.6 mph - N/A   Overcast
5:55 AM 68.0 °F - 62.6 °F 83% 30.01 in 5.0 mi West 3.5 mph - N/A   Overcast
6:15 AM 68.0 °F - 64.4 °F 88% 30.01 in 7.0 mi WSW 4.6 mph - N/A   Overcast
6:47 AM 68.0 °F - 64.4 °F 88% 30.02 in 0.2 mi SW 5.8 mph - N/A Fog Fog
7:47 AM 68.0 °F - 64.4 °F 88% 30.03 in 0.2 mi WSW 8.1 mph - N/A Fog Fog
8:50 AM 69.8 °F - 66.2 °F 88% 30.05 in 0.4 mi WSW 6.9 mph - N/A Fog Fog
9:07 AM 69.8 °F - 66.2 °F 88% 30.05 in 0.4 mi WSW 6.9 mph - N/A Fog Fog
9:15 AM 69.8 °F - 66.2 °F 88% 30.06 in 0.8 mi WSW 6.9 mph - N/A   Mostly Cloudy
9:40 AM 71.6 °F - 66.2 °F 83% 30.07 in 1.5 mi WSW 6.9 mph - N/A   Mostly Cloudy
9:55 AM 71.6 °F - 68.0 °F 88% 30.07 in 2.0 mi SW 6.9 mph - N/A   Mostly Cloudy
10:07 AM 71.6 °F - 68.0 °F 88% 30.07 in 2.5 mi SW 6.9 mph - N/A   Mostly Cloudy
10:25 AM 73.4 °F - 68.0 °F 83% 30.06 in 4.0 mi SSW 6.9 mph - N/A   Mostly Cloudy
10:37 AM 73.4 °F - 69.8 °F 88% 30.06 in 7.0 mi SSW 6.9 mph - N/A   Scattered Clouds
10:47 AM 77.0 °F - 69.8 °F 78% 30.05 in 7.0 mi SW 6.9 mph - N/A   Scattered Clouds
11:55 AM 80.6 °F 82.7 °F 66.2 °F 61% 30.02 in 7.0 mi West 12.7 mph - N/A   Mostly Cloudy
12:55 PM 80.6 °F 82.7 °F 66.2 °F 61% 30.01 in 7.0 mi West 15.0 mph 23.0 mph N/A   Scattered Clouds
1:47 PM 80.6 °F 82.3 °F 64.4 °F 58% 30.00 in 7.0 mi WSW 13.8 mph 19.6 mph N/A   Mostly Cloudy
2:47 PM 82.4 °F 82.0 °F 57.2 °F 42% 29.99 in 7.0 mi West 11.5 mph 18.4 mph N/A   Mostly Cloudy
3:47 PM 80.6 °F 80.8 °F 57.2 °F 45% 29.99 in 7.0 mi West 11.5 mph 16.1 mph N/A   Mostly Cloudy
4:47 PM 78.8 °F - 57.2 °F 47% 30.01 in 7.0 mi West 9.2 mph - N/A   Mostly Cloudy
5:47 PM 73.4 °F - 60.8 °F 65% 30.05 in 7.0 mi WNW 12.7 mph 21.9 mph N/A   Mostly Cloudy
6:47 PM 68.0 °F - 39.2 °F 35% 30.10 in 7.0 mi NW 17.3 mph 25.3 mph N/A   Mostly Cloudy
8:15 PM 62.6 °F - 37.4 °F 39% 30.16 in 10.0 mi NNW 11.5 mph 21.9 mph N/A   Clear
8:35 PM 62.6 °F - 41.0 °F 45% 30.17 in 10.0 mi NNW 8.1 mph 16.1 mph N/A   Clear
8:55 PM 60.8 °F - 23.0 °F 23% 30.20 in 10.0 mi NNW 17.3 mph 26.5 mph N/A   Clear
9:15 PM 59.0 °F - 15.8 °F 19% 30.20 in 10.0 mi NW 12.7 mph 23.0 mph N/A   Clear
9:35 PM 57.2 °F - 28.4 °F 33% 30.21 in 10.0 mi NW 8.1 mph 19.6 mph N/A   Mostly Cloudy
9:55 PM 55.4 °F - 32.0 °F 41% 30.22 in 10.0 mi NNW 10.4 mph 19.6 mph N/A   Overcast
10:15 PM 55.4 °F - 33.8 °F 44% 30.22 in 10.0 mi NNW 11.5 mph 19.6 mph N/A   Overcast
10:35 PM 55.4 °F - 35.6 °F 47% 30.23 in 10.0 mi NNW 10.4 mph 19.6 mph N/A   Overcast
10:55 PM 53.6 °F - 28.4 °F 38% 30.24 in 10.0 mi NNW 13.8 mph 24.2 mph N/A   Overcast
11:15 PM 53.6 °F - 14.0 °F 21% 30.25 in 10.0 mi NNW 16.1 mph 28.8 mph N/A   Overcast
11:35 PM 51.8 °F - 12.2 °F 21% 30.25 in 10.0 mi NNW 11.5 mph 25.3 mph N/A   Overcast
11:55 PM 51.8 °F - 10.4 °F 19% 30.25 in 10.0 mi NNW 12.7 mph 24.2 mph N/A   Overcast